Location: Cran-Gévrier
(45.9039°N, 6.1012°E)
Time: 08:37:35
(UTC+00:00)

TIGRISAT - Visible Passes

Search period start: 02 December 2023 00:00
Search period end: 12 December 2023 00:00
Orbit: 598 x 676 km, 97.7° (Epoch: 02 December)

Date Brightness Start Highest point End Pass type
(mag) Time Alt. Az. Time Alt. Az. Time Alt. Az.
02 Dec ? 16:47:58 10° NNE 16:52:29 83° ESE 16:56:51 10° SSW visible
02 Dec ? 18:26:22 10° NNW 18:28:16 13° WNW 18:30:09 10° W visible
03 Dec ? 17:10:38 10° N 17:15:03 58° WNW 17:19:19 10° SSW visible
04 Dec ? 17:33:28 10° N 17:37:31 34° WNW 17:41:28 10° SW visible
05 Dec ? 16:19:27 10° NNE 16:23:42 42° E 16:27:49 10° S visible
05 Dec ? 17:56:30 10° NNW 17:59:54 22° WNW 18:03:14 10° WSW visible
06 Dec ? 16:41:52 10° NNE 16:46:19 73° ESE 16:50:38 10° S visible
06 Dec ? 18:19:57 10° NNW 18:22:12 14° WNW 18:24:25 10° W visible
07 Dec ? 17:04:27 10° N 17:08:51 66° WNW 17:13:07 10° SSW visible
08 Dec ? 17:27:11 10° N 17:31:18 39° WNW 17:35:19 10° SW visible
09 Dec ? 17:50:07 10° NNW 17:53:40 24° WNW 17:57:07 10° WSW visible
10 Dec ? 16:35:36 10° NNE 16:39:58 63° E 16:44:13 10° S visible
10 Dec ? 18:13:23 10° NNW 18:15:55 15° WNW 18:18:25 10° W visible
11 Dec ? 16:58:05 10° N 17:02:28 76° WNW 17:06:44 10° SSW visible
